GW0996 Weather Reports


time (UTC)temp
C
wind
direction
speed
KPH
gust
KPH
rain 1hr
cm
rain 24hr
cm
rain mn
cm
humidity
%
barometer
mb
20260505163706 15 128 3.2 4.8 4.09 5.89 5.89 94 1012.2
20260505163205 15 322 0.0 4.8 4.09 5.64 5.69 94 1012.5
20260505162656 15 320 3.2 4.8 4.37 5.44 5.44 94 1012.3
20260505162153 15 326 1.6 3.2 4.42 5.26 5.28 94 1012.4
20260505161657 15 316 0.0 6.4 4.19 5.03 5.05 94 1012.3
20260505161154 15 311 1.6 6.4 3.68 4.50 4.62 94 1012.6
20260505160655 15 290 0.0 6.4 3.20 4.01 4.09 93 1012.5
20260505160156 15 303 0.0 6.4 2.64 3.45 3.51 93 1012.3
20260505153153 16 325 6.4 9.7 0.76 1.55 1.55 90 1011.9
20260505152654 16 331 4.8 6.4 0.28 1.07 1.09 88 1011.8
20260505151647 17 322 0.0 0.0 0.08 0.84 0.84 89 1011.7
20260505151142 17 322 0.0 3.2 0.05 0.81 0.81 87 1011.4
20260505150641 17 285 0.0 4.8 0.05 0.81 0.81 87 1011.6
20260505150142 17 311 0.0 4.8 0.05 0.81 0.81 85 1011.7
20260505140642 18 6 0.0 6.4 0.00 0.76 0.76 77 1011.8
20260505130142 18 170 3.2 12.9 0.00 0.76 0.76 76 1012.3
20260505124642 18 235 1.6 6.4 0.00 0.76 0.76 74 1012.7
20260505123639 18 112 0.0 11.3 0.00 0.76 0.76 76 1012.9
20260505123142 18 136 1.6 6.4 0.00 0.76 0.76 75 1013.0
20260505122640 18 220 1.6 11.3 0.00 0.76 0.76 75 1013.0
20260505122140 18 55 4.8 11.3 0.00 0.76 0.76 75 1013.1
20260505121644 18 162 6.4 11.3 0.00 0.76 0.76 74 1013.1
20260505120631 18 220 4.8 17.7 0.00 0.76 0.76 76 1013.0
20260505120129 18 166 1.6 9.7 0.00 0.76 0.76 75 1013.0
20260505115619 18 161 1.6 17.7 0.00 0.76 0.76 79 1012.9
20260505115116 17 158 4.8 17.7 0.00 0.76 0.76 79 1013.0
20260505114107 17 203 3.2 14.5 0.00 0.76 0.76 79 1013.3
20260505113110 17 81 1.6 9.7 0.00 0.76 0.76 79 1013.3
20260505112554 17 156 1.6 9.7 0.00 0.76 0.76 79 1013.2
20260505112058 17 137 1.6 9.7 0.00 0.76 0.76 80 1013.3
20260505111553 17 119 4.8 6.4 0.00 0.76 0.76 78 1013.5
20260505111054 17 76 3.2 6.4 0.00 0.76 0.76 81 1013.2
20260505110556 16 222 1.6 9.7 0.00 0.76 0.76 83 1013.2
20260505102056 15 156 3.2 12.9 0.00 0.76 0.76 83 1013.5
20260505101554 15 224 1.6 6.4 0.00 0.76 0.76 83 1013.6
20260505101055 15 142 3.2 6.4 0.00 0.76 0.76 82 1013.5
20260505100558 15 261 3.2 6.4 0.00 0.76 0.76 82 1013.6
20260505100059 15 356 0.0 4.8 0.00 0.76 0.76 83 1013.3
20260505095552 15 87 0.0 17.7 0.00 0.76 0.76 83 1013.4
20260505095040 15 167 3.2 17.7 0.00 0.76 0.76 83 1013.3
20260505094044 15 158 0.0 6.4 0.00 0.76 0.76 83 1013.4
20260505093039 15 167 4.8 9.7 0.00 0.76 0.76 83 1013.6
20260505092542 15 137 3.2 9.7 0.00 0.76 0.76 83 1013.5
20260505092041 15 220 1.6 6.4 0.00 0.76 0.76 83 1013.6
20260505091541 15 313 0.0 4.8 0.00 0.76 0.76 85 1013.5
20260505091042 15 144 0.0 4.8 0.00 0.76 0.76 84 1013.3
20260505090539 15 222 0.0 4.8 0.00 0.76 0.76 84 1013.5
20260505090040 14 228 1.6 6.4 0.00 0.76 0.76 85 1013.6
20260505085542 14 306 0.0 6.4 0.00 0.76 0.76 86 1013.4
20260505085040 14 211 1.6 9.7 0.00 0.76 0.76 85 1013.7
20260505084540 14 248 1.6 9.7 0.00 0.76 0.76 84 1013.5
20260505084042 14 214 0.0 9.7 0.00 0.76 0.76 85 1013.5
20260505083528 14 221 3.2 4.8 0.00 0.76 0.76 85 1013.6
20260505082528 14 223 3.2 6.4 0.00 0.76 0.76 86 1013.4
20260505082017 14 237 0.0 4.8 0.00 0.76 0.76 86 1013.6
20260505081516 14 168 1.6 6.4 0.00 0.76 0.76 85 1013.3
20260505081017 13 202 0.0 6.4 0.00 0.76 0.76 86 1013.3
20260505080504 13 186 0.0 3.2 0.00 0.76 0.76 86 1013.3
20260505075507 13 207 0.0 3.2 0.00 0.76 0.76 86 1013.6
20260505074454 13 159 0.0 6.4 0.00 0.76 0.76 86 1013.6
20260505073952 13 243 1.6 11.3 0.00 0.76 0.76 86 1013.5
20260505072954 13 256 1.6 9.7 0.00 0.76 0.76 86 1013.4
20260505072452 13 206 0.0 11.3 0.00 0.76 0.76 86 1013.4
20260505071951 13 245 3.2 11.3 0.03 0.76 0.76 86 1013.5
20260505071454 13 242 1.6 9.7 0.03 0.76 0.76 86 1013.5
20260505070952 13 129 0.0 9.7 0.03 0.76 0.76 86 1013.6
20260505065954 13 137 1.6 6.4 0.03 0.76 0.76 87 1013.3
20260505065455 13 60 0.0 4.8 0.03 0.76 0.76 88 1013.5
20260505064953 13 266 3.2 4.8 0.03 0.76 0.76 87 1013.6
20260505064454 13 239 1.6 4.8 0.03 0.76 0.76 88 1013.7
20260505063952 13 150 1.6 4.8 0.03 0.76 0.76 88 1013.6
20260505063453 13 152 1.6 4.8 0.03 0.76 0.76 88 1013.4
20260505062955 13 90 3.2 9.7 0.05 0.76 0.76 87 1013.5
20260505062452 13 222 1.6 9.7 0.08 0.76 0.76 88 1013.4
20260505061953 12 279 3.2 11.3 0.10 0.74 0.74 88 1013.4
20260505061443 12 148 0.0 11.3 0.13 0.74 0.74 88 1013.6
20260505060939 12 227 0.0 4.8 0.15 0.74 0.74 88 1013.4
20260505060441 12 99 3.2 6.4 0.15 0.74 0.74 88 1013.7
20260505055940 12 166 0.0 9.7 0.15 0.74 0.74 89 1013.5
20260505055442 12 142 3.2 9.7 0.15 0.74 0.74 89 1013.3
20260505054943 12 127 0.0 6.4 0.18 0.74 0.74 89 1013.4
20260505053943 12 229 1.6 9.7 0.18 0.74 0.74 89 1013.2
20260505053442 12 226 0.0 9.7 0.20 0.74 0.74 90 1013.4
20260505052940 12 187 0.0 9.7 0.18 0.71 0.71 90 1013.3
20260505052441 12 170 1.6 6.4 0.15 0.69 0.69 92 1013.3
20260505051941 12 268 0.0 4.8 0.13 0.64 0.64 92 1013.2
20260505051442 12 336 3.2 6.4 0.15 0.61 0.61 93 1013.3
20260505050940 12 37 0.0 6.4 0.15 0.58 0.58 93 1013.2
20260505050442 12 36 1.6 3.2 0.18 0.58 0.58 93 1013.1
20260505041351 12 358 0.0 0.0 0.08 0.46 0.46 93 1013.4
20260505040354 12 359 0.0 0.0 0.03 0.41 0.43 93 1013.3
20260505035842 12 359 0.0 0.0 0.03 0.41 0.41 93 1013.3
20260505035339 12 359 0.0 0.0 0.03 0.41 0.41 92 1013.3
20260505034843 12 357 0.0 0.0 0.03 0.41 0.41 92 1013.4
20260505033339 12 357 0.0 0.0 0.08 0.38 0.38 92 1013.4
20260505032843 12 356 0.0 0.0 0.10 0.38 0.38 92 1013.6
20260505032327 12 356 0.0 0.0 0.13 0.38 0.38 92 1013.7
20260505031831 12 356 0.0 0.0 0.15 0.38 0.38 92 1013.8
20260505031303 12 356 0.0 0.0 0.15 0.38 0.38 92 1013.9
20260505030804 12 356 0.0 1.6 0.18 0.38 0.38 91 1013.8
20260505030304 12 356 0.0 1.6 0.20 0.38 0.38 91 1013.9
20260505025252 12 52 0.0 0.0 0.23 0.38 0.38 91 1014.0
20260505024752 12 49 0.0 1.6 0.23 0.38 0.38 91 1014.2
20260505024252 12 48 0.0 3.2 0.23 0.36 0.36 90 1014.3
20260505023253 12 99 0.0 0.0 0.20 0.30 0.30 91 1014.1
20260505022253 12 102 0.0 0.0 0.18 0.25 0.25 90 1014.2
20260505021753 12 102 0.0 0.0 0.18 0.23 0.23 89 1014.3
20260505021253 12 101 0.0 0.0 0.20 0.23 0.23 89 1014.5
20260505020244 12 113 0.0 4.8 0.15 0.18 0.18 87 1014.7
20260505015742 12 308 4.8 4.8 0.15 0.15 0.15 87 1014.6
20260505015242 12 306 0.0 3.2 0.15 0.15 0.15 87 1014.6
20260505014229 12 251 0.0 1.6 0.13 0.13 0.13 86 1014.7
20260505013728 12 255 0.0 1.6 0.13 0.13 0.13 85 1014.8
20260505013228 12 154 0.0 3.2 0.10 0.10 0.10 84 1014.8
20260505012728 12 150 0.0 3.2 0.08 0.08 0.08 84 1014.9
20260505012221 13 284 0.0 1.6 0.08 0.08 0.08 84 1015.1
20260505011704 13 156 0.0 1.6 0.05 0.05 0.05 84 1014.9
20260505011205 13 157 0.0 0.0 0.03 0.03 0.03 83 1015.0
20260505010700 13 157 0.0 3.2 0.03 0.03 0.03 80 1015.0
20260505010153 13 157 0.0 3.2 0.03 0.03 0.03 76 1015.0
20260505005651 14 159 0.0 1.6 0.00 0.00 0.00 75 1015.1
20260505005152 14 161 0.0 0.0 0.00 0.00 0.00 74 1015.1
20260505004651 13 159 0.0 1.6 0.00 0.00 0.00 73 1015.3
20260505003652 13 288 0.0 0.0 0.00 0.00 0.00 74 1015.2
20260505002640 13 288 0.0 0.0 0.00 0.00 0.00 74 1015.5
20260505002141 13 289 0.0 0.0 0.00 0.00 0.00 73 1015.6
20260505001641 13 289 0.0 0.0 0.00 0.00 0.00 74 1016.0
20260505000640 13 289 0.0 0.0 0.00 0.00 0.00 75 1015.7
20260505000140 13 289 0.0 0.0 0.00 0.00 0.00 74 1015.7
20260504235640 13 289 0.0 0.0 0.00 0.00 0.00 76 1015.7
20260504234629 13 289 0.0 0.0 0.00 0.00 0.00 74 1015.8
20260504234128 13 289 0.0 0.0 0.00 0.00 0.00 74 1015.8
20260504233615 13 289 0.0 0.0 0.00 0.00 0.00 73 1016.0
20260504233119 13 289 0.0 0.0 0.00 0.00 0.00 72 1016.0
20260504232555 13 289 0.0 0.0 0.00 0.00 0.00 72 1016.1
20260504232051 13 289 0.0 0.0 0.00 0.00 0.00 73 1016.1
20260504231553 13 289 0.0 0.0 0.00 0.00 0.00 73 1016.2
20260504231042 13 289 0.0 0.0 0.00 0.00 0.00 73 1016.3
20260504230540 13 289 0.0 0.0 0.00 0.00 0.00 72 1016.6
20260504230040 13 289 0.0 0.0 0.00 0.00 0.00 71 1016.4
20260504225540 13 289 0.0 0.0 0.00 0.00 0.00 72 1016.6
20260504224539 13 289 0.0 0.0 0.00 0.00 0.00 71 1016.6
20260504224040 13 288 0.0 0.0 0.00 0.00 0.00 72 1016.6
20260504223527 13 289 0.0 0.0 0.00 0.00 0.00 72 1016.6
20260504223028 13 289 0.0 0.0 0.00 0.00 0.00 71 1016.6
20260504222504 13 289 0.0 0.0 0.00 0.00 0.00 71 1016.7
20260504222004 13 289 0.0 0.0 0.00 0.00 0.00 71 1016.7
20260504221452 13 290 0.0 1.6 0.00 0.00 0.00 70 1016.6
20260504220953 13 290 0.0 3.2 0.00 0.00 0.00 68 1016.7
20260504220453 13 289 1.6 3.2 0.00 0.00 0.00 69 1016.7
20260504215952 13 162 0.0 0.0 0.00 0.00 0.00 70 1016.9
20260504215453 13 162 0.0 1.6 0.00 0.00 0.00 69 1017.0
20260504214453 14 171 0.0 0.0 0.00 0.00 0.00 67 1017.0
20260504213952 15 171 0.0 0.0 0.00 0.00 0.00 65 1016.7
20260504213455 15 174 0.0 1.6 0.00 0.00 0.00 64 1016.8
20260504212955 15 174 0.0 1.6 0.00 0.00 0.00 63 1016.9
20260504212453 15 215 0.0 1.6 0.00 0.00 0.00 62 1016.8
20260504211953 16 133 0.0 3.2 0.00 0.00 0.00 60 1016.9
20260504211452 16 112 0.0 3.2 0.00 0.00 0.00 60 1016.8
20260504210953 16 120 0.0 6.4 0.00 0.00 0.00 60 1016.9
20260504205957 15 296 1.6 3.2 0.00 0.00 0.00 59 1017.0
20260504205441 16 234 0.0 1.6 0.00 0.00 0.00 59 1017.1
20260504204942 16 222 0.0 1.6 0.00 0.00 0.00 58 1017.2
20260504203940 16 289 0.0 0.0 0.00 0.00 0.00 58 1017.0
20260504202939 16 287 0.0 3.2 0.00 0.00 0.00 57 1016.7
20260504202440 16 289 0.0 3.2 0.00 0.00 0.00 57 1016.9
20260504201943 16 338 0.0 3.2 0.00 0.00 0.00 56 1016.7
20260504201442 16 154 0.0 1.6 0.00 0.00 0.00 56 1016.8
20260504200940 16 183 0.0 1.6 0.00 0.00 0.00 55 1017.0
20260504200440 16 152 0.0 1.6 0.00 0.00 0.00 55 1016.9
20260504195941 16 14 0.0 3.2 0.00 0.00 0.00 55 1017.0
20260504195441 16 336 0.0 3.2 0.00 0.00 0.00 54 1016.9
20260504194942 16 84 0.0 1.6 0.00 0.00 0.00 53 1016.9
20260504194444 16 36 0.0 3.2 0.00 0.00 0.00 53 1017.1
20260504193428 16 127 0.0 1.6 0.00 0.00 0.00 51 1016.6
20260504192928 17 91 0.0 0.0 0.00 0.00 0.00 51 1016.6
20260504192427 17 99 0.0 3.2 0.00 0.00 0.00 51 1016.5
20260504191429 17 305 0.0 3.2 0.00 0.00 0.00 49 1016.5
20260504185929 17 160 0.0 3.2 0.00 0.00 0.00 45 1016.2
20260504185431 18 149 0.0 4.8 0.00 0.00 0.00 45 1016.0
20260504184905 18 145 4.8 4.8 0.00 0.00 0.00 45 1016.4
20260504184404 18 182 0.0 3.2 0.00 0.00 0.00 45 1016.4
20260504183904 18 149 0.0 3.2 0.00 0.00 0.00 44 1016.2
20260504183354 18 161 1.6 6.4 0.00 0.00 0.00 43 1016.2
20260504182853 18 167 0.0 6.4 0.00 0.00 0.00 43 1016.4
20260504182354 18 137 1.6 3.2 0.00 0.00 0.00 42 1016.4
20260504181852 18 141 1.6 4.8 0.00 0.00 0.00 42 1016.5
20260504180853 18 238 0.0 1.6 0.00 0.00 0.00 42 1016.2
20260504180356 18 153 0.0 1.6 0.00 0.00 0.00 41 1016.0
20260504175853 18 162 0.0 1.6 0.00 0.00 0.00 42 1016.5
20260504175355 18 206 1.6 1.6 0.00 0.00 0.00 41 1016.3
20260504174853 18 129 0.0 3.2 0.00 0.00 0.00 42 1016.0
20260504174354 18 129 0.0 3.2 0.00 0.00 0.00 40 1016.0
20260504173858 18 176 0.0 3.2 0.00 0.00 0.00 39 1016.1
20260504173355 19 152 0.0 1.6 0.00 0.00 0.00 40 1015.9
20260504172851 19 152 0.0 1.6 0.00 0.00 0.00 38 1015.8
20260504172353 20 220 0.0 3.2 0.00 0.00 0.00 39 1015.9
20260504171851 20 150 0.0 3.2 0.00 0.00 0.00 42 1015.9
20260504171353 20 212 0.0 1.6 0.00 0.00 0.00 39 1015.9
20260504170354 20 227 0.0 3.2 0.00 0.00 0.00 40 1015.9